EHI
10 12 13 11 7 6 6 4 1 1 1 0 0 2 4 5 5 6 9 14 15 13 12 12 10 7 4 5 7 7 6 3 1 0 0 0 0 0 0 0 0 1 1
14 15 15 12 8 7 6 3 2 2 2 2 1 2 4 5 7 8 8 10 12 13 13 13 13 10 8 8 8 9 8 5 3 1 1 0 0 0 0 0 0 0 1
17 15 14 11 8 6 4 3 4 4 4 4 4 4 4 5 6 7 6 6 7 11 14 15 15 13 11 9 9 10 9 7 6 4 3 2 1 0 0 0 0 0 0
16 14 11 8 6 5 3 3 5 6 5 6 6 6 7 6 4 4 5 5 5 8 12 14 13 12 9 8 9 9 9 9 9 7 6 4 3 1 0 0 0 0 0
15 13 10 7 7 7 5 4 5 6 6 6 6 7 7 6 4 3 5 5 5 8 9 10 10 9 7 6 7 8 9 8 8 9 7 6 4 2 1 0 0 0 0
15 14 11 8 8 8 6 4 4 4 5 5 4 4 4 4 4 5 5 5 5 5 5 5 7 7 6 6 6 7 8 6 6 8 8 6 5 3 2 1 0 0 0
14 13 11 10 8 7 6 6 5 4 4 4 3 1 1 1 2 3 5 5 3 2 1 2 3 5 6 5 4 5 6 5 4 6 7 7 5 3 3 2 1 0 0
12 11 10 10 9 8 7 8 6 4 4 4 3 1 0 0 0 1 3 4 3 2 2 1 2 4 4 3 2 3 4 3 3 4 5 5 3 2 3 3 2 1 0
10 9 8 8 9 9 9 8 6 5 5 5 4 2 1 1 1 0 1 2 3 3 3 2 3 4 4 3 2 1 1 1 2 3 3 3 1 1 1 3 3 2 1
10 9 7 6 9 11 10 8 6 5 4 4 4 3 3 3 2 1 0 1 2 3 3 3 2 4 5 4 1 0 0 0 1 1 1 1 0 0 1 2 2 2 1
10 10 8 7 9 10 9 6 4 2 2 3 3 4 4 4 3 2 1 0 1 2 3 2 3 4 5 4 1 0 0 0 0 0 0 0 0 0 0 1 1 1 1
9 9 8 8 9 8 6 4 1 0 1 2 3 3 3 3 3 3 2 0 0 1 1 3 4 5 4 3 1 0 0 0 0 0 0 0 0 0 0 0 0 0 1
5 6 5 5 6 5 4 3 1 0 1 2 3 3 2 2 2 2 1 0 0 0 1 2 4 5 3 2 1 0 0 0 0 0 0 0 0 0 0 0 0 0 0
4 4 3 3 3 3 2 2 1 1 1 2 3 2 1 0 1 1 1 0 0 0 0 1 3 3 1 1 0 0 0 0 0 0 0 0 0 0 0 0 0 0 0
2 3 3 2 2 2 2 2 1 1 2 2 1 1 0 0 1 1 1 0 0 0 0 0 1 1 0 0 0 0 0 0 0 0 0 0 0 0 0 0 0 0 0
1 1 2 2 2 2 3 3 2 1 1 1 0 0 0 1 2 2 1 0 0 0 0 0 0 0 0 0 0 0 0 0 0 0 0 0 0 0 0 0 0 0 0
1 1 1 2 2 2 3 3 2 1 0 0 0 0 0 1 2 3 1 0 0 0 0 0 0 0 0 0 0 0 0 0 0 0 0 0 0 0 0 0 0 0 0
2 2 2 2 2 2 2 1 1 0 0 0 0 0 0 0 1 1 0 0 0 0 0 0 0 0 0 0 0 0 0 0 0 0 0 0 0 0 0 0 0 0 0
2 2 2 1 1 1 1 0 0 0 0 0 0 0 0 0 0 0 0 0 0 0 0 0 0 0 0 0 0 0 0 0 0 0 0 0 0 0 0 0 0 0 0
1 1 1 0 0 0 0 0 0 0 0 0 0 0 0 0 0 0 0 0 0 0 0 0 0 0 0 0 0 0 0 0 0 0 0 0 0 0 0 0 0 0 0
0 0 0 0 0 0 0 0 0 0 0 0 0 0 0 0 0 0 0 0 0 0 0 0 0 0 0 0 0 0 0 0 0 0 0 0 0 0 0 0 0 0 0
0 0 0 0 0 0 0 0 0 0 0 0 0 0 0 0 0 0 0 0 0 0 0 0 0 0 0 0 0 0 0 0 0 0 0 0 0 0 0 0 0 0 0
0 0 0 0 0 0 0 0 0 0 0 0 0 0 0 0 0 0 0 0 0 0 0 0 0 0 0 0 0 0 0 0 0 0 0 0 0 0 0 0 0 0 0
0 0 0 0 0 0 0 0 0 0 0 0 0 0 0 0 0 0 0 0 0 0 0 0 0 0 0 0 0 0 0 0 0 0 0 0 0 0 0 0 0 0 0
0 0 0 0 0 0 0 0 0 0 0 0 0 0 0 0 0 0 0 0 0 0 0 0 0 0 0 0 0 0 0 0 0 0 0 0 0 0 0 0 0 0 0
0 0 0 0 0 0 0 0 0 0 0 0 0 0 0 0 0 0 0 0 0 0 0 0 0 0 0 0 0 0 0 0 0 0 0 0 0 0 0 0 0 0 0
Wind_Speed
2 1 1 1 1 1 2 2 3 3 3 3 3 3 3 3 2 1 2 6 6 5 4 3 4 5 6 6 6 7 7 8 8 8 7 7 7 7 7 7 6 6 6
2 2 1 1 2 2 2 2 3 2 2 2 3 3 3 3 2 2 0 3 5 5 4 4 3 3 4 4 5 7 8 8 9 9 9 8 8 8 7 7 7 6 6
2 2 2 1 2 3 3 2 3 2 2 2 2 3 2 2 2 2 1 0 2 4 5 4 3 3 3 3 4 5 7 8 8 9 10 10 9 9 9 8 8 7 7
3 2 1 1 2 2 2 2 1 2 2 2 2 2 2 1 2 1 1 1 0 1 3 4 4 3 3 3 3 4 5 7 7 8 9 10 10 9 9 8 8 8 7
3 2 1 2 3 2 2 3 2 2 2 2 2 2 1 1 1 1 1 1 1 0 1 3 4 3 2 2 3 4 4 5 6 7 7 9 9 9 9 9 9 9 8
3 3 1 2 3 2 2 2 3 2 2 2 3 2 1 1 1 1 1 1 1 1 0 0 2 2 2 1 1 2 3 3 4 5 6 8 8 10 10 10 10 10 9
3 2 3 2 2 2 2 3 3 3 2 1 1 2 2 2 1 1 0 0 1 1 1 1 1 1 1 2 1 1 1 2 2 3 5 5 7 8 9 9 10 9 9
3 3 3 3 3 2 3 3 3 2 2 2 1 2 1 0 0 0 0 0 0 1 1 2 2 2 2 1 2 2 0 1 1 2 4 5 5 7 8 9 9 9 9
2 3 3 3 3 3 3 3 3 3 3 2 1 1 1 1 1 1 1 1 1 1 1 1 2 2 1 2 2 3 3 2 2 2 3 3 4 5 8 9 10 9 9
2 2 3 3 4 3 3 4 4 4 4 3 2 1 1 1 1 1 1 1 1 1 1 1 2 1 1 1 2 4 4 4 3 3 4 4 4 5 5 6 7 7 8
2 3 3 3 3 3 4 4 4 4 3 3 3 3 2 2 1 1 1 0 1 1 1 1 1 1 1 1 2 4 5 5 5 5 4 4 4 4 4 5 7 7 7
3 4 4 3 3 3 3 3 3 3 3 3 3 3 3 2 1 1 1 1 1 1 1 0 0 1 1 2 4 6 5 6 5 4 4 4 3 3 4 5 7 7 8
3 4 4 3 3 3 3 3 2 3 3 3 3 2 2 2 2 1 1 1 1 1 1 0 1 1 2 2 3 5 5 5 4 4 3 3 3 3 3 3 5 6 7
3 3 3 3 4 4 4 3 3 3 2 3 3 3 2 2 2 1 1 1 1 1 1 1 1 1 2 2 3 2 3 4 4 3 3 3 3 3 3 4 3 3 3
3 4 4 3 4 4 4 4 3 3 2 2 2 2 2 2 2 1 1 1 1 1 1 1 1 1 1 2 1 1 2 4 4 4 4 4 3 3 3 3 3 3 3
3 3 3 4 4 4 4 4 3 3 2 2 2 2 2 2 2 2 1 1 1 1 1 0 1 1 1 1 1 1 2 5 5 5 5 4 3 2 3 2 2 3 3
2 2 3 3 3 4 4 4 4 3 3 3 3 3 3 3 2 2 1 1 1 0 0 0 0 1 1 0 0 1 2 3 3 6 6 5 3 3 3 2 2 2 3
3 3 3 4 4 4 4 4 5 4 4 4 4 3 3 3 3 2 2 1 1 0 1 0 0 0 1 1 1 1 1 2 3 6 7 6 5 4 4 3 3 4 4
3 4 4 4 4 4 4 4 4 4 4 4 4 4 3 3 3 2 2 1 1 1 1 1 1 0 1 1 1 1 1 0 2 5 7 6 6 6 5 4 4 4 5
3 3 4 4 4 5 6 6 6 4 4 3 3 3 3 3 3 3 2 2 1 1 1 0 0 0 0 0 0 1 1 1 1 2 4 5 6 7 6 5 5 5 6
3 3 3 3 4 4 6 7 6 5 4 4 3 3 3 3 3 3 2 2 2 1 1 0 0 0 0 0 0 1 0 0 1 1 1 2 3 3 4 5 7 7 7
3 3 3 4 5 5 7 8 6 5 4 4 3 3 2 2 3 3 3 2 2 2 1 1 0 1 1 0 0 1 0 0 1 1 1 1 2 3 3 3 7 9 9
2 2 3 3 4 5 7 8 9 4 4 3 3 3 3 4 5 4 3 3 2 2 2 2 1 2 1 1 1 1 1 1 2 2 1 1 1 2 2 3 7 10 10
1 1 2 2 3 5 6 8 9 4 3 3 2 3 3 3 5 5 4 3 2 2 2 1 2 2 1 1 1 1 1 2 2 2 1 1 1 1 2 1 6 10 10
1 1 1 2 2 3 6 7 8 3 2 2 2 3 3 3 5 6 3 3 3 2 2 1 1 1 2 2 2 1 1 1 1 1 1 1 1 1 1 2 3 8 10
1 1 1 1 2 2 4 5 6 2 2 2 1 1 3 3 4 5 3 2 3 3 3 3 1 1 2 3 5 4 3 1 1 1 1 1 1 1 2 2 2 2 5
Wind_Direction
12 8 24 1 323 292 279 280 274 278 292 303 293 299 316 315 342 16 120 145 148 160 174 190 212 221 222 217 213 210 210 211 208 204 203 204 203 203 202 194 189 185 185
19 351 356 357 341 327 315 287 290 295 285 288 306 318 312 320 344 347 83 158 166 169 175 187 205 211 218 220 222 218 214 214 213 207 204 204 204 201 201 195 189 182 178
2 337 340 346 339 316 312 301 308 312 293 303 311 309 310 327 332 343 352 210 179 184 185 185 195 204 219 234 236 230 223 217 212 211 209 205 203 201 196 190 186 179 174
5 343 343 357 320 305 311 301 301 311 322 328 319 309 320 327 313 307 318 312 257 207 187 185 190 197 209 224 231 231 228 221 210 208 209 205 202 198 192 186 182 177 170
4 351 5 3 324 319 326 316 359 327 317 318 295 275 295 304 309 315 307 301 310 208 160 171 182 194 202 224 230 230 226 224 216 210 203 200 199 193 189 183 174 171 173
5 349 356 11 337 333 333 337 333 308 284 275 287 305 298 264 266 279 296 333 343 343 359 202 173 192 185 199 223 238 228 226 211 204 200 201 200 195 190 184 178 176 179
359 350 0 352 338 344 339 333 326 310 300 312 307 299 266 226 208 217 193 12 2 18 36 32 40 37 115 146 118 253 232 217 192 192 194 194 191 187 184 184 184 179 179
351 356 18 355 352 343 345 341 333 321 316 331 305 299 282 245 3 284 114 150 51 40 40 40 52 43 22 67 86 77 95 180 186 192 192 185 186 184 184 183 182 183 185
5 10 10 357 349 354 356 348 345 337 326 307 295 305 307 301 2 1 13 49 46 46 38 46 53 51 35 52 76 64 68 78 93 101 128 150 169 178 188 189 194 192 189
18 20 11 5 358 1 358 346 9 338 331 325 321 309 292 295 248 282 337 22 17 25 28 21 40 33 52 72 94 90 78 73 83 92 106 115 128 142 155 175 179 183 187
32 32 25 11 1 3 5 354 348 345 341 336 328 319 310 300 273 240 257 299 336 343 34 54 57 30 65 92 115 96 86 82 85 89 102 114 121 138 156 171 173 180 185
44 30 24 12 5 -0 354 343 337 340 338 334 327 321 318 314 318 313 272 279 288 307 324 39 67 55 63 73 97 98 99 100 94 93 98 111 126 141 162 175 183 192 195
42 29 20 2 357 346 334 332 327 329 331 331 323 315 316 310 304 302 277 295 300 291 277 119 58 51 58 77 99 107 113 110 105 98 100 108 121 129 139 157 180 194 198
29 21 8 359 352 345 346 344 331 326 336 326 325 329 309 311 317 288 253 272 296 293 333 42 24 44 55 77 88 121 122 119 117 113 105 106 108 108 105 125 136 157 166
15 14 359 356 353 349 348 344 339 344 341 332 333 342 339 326 318 315 296 227 228 257 285 1 25 22 38 74 123 147 122 132 132 132 127 122 122 123 125 130 139 151 173
3 354 352 351 353 350 349 347 339 340 338 342 333 340 339 333 337 337 336 319 289 233 254 303 356 35 39 31 132 113 127 145 152 153 149 148 153 156 153 150 156 172 192
346 352 351 347 345 346 350 343 334 348 355 354 352 2 355 346 348 335 334 323 338 15 165 28 49 72 61 332 191 169 168 165 163 173 170 171 173 170 170 172 177 193 209
357 2 1 354 354 3 355 350 345 356 355 356 357 359 351 356 360 355 349 353 358 307 138 152 263 237 242 220 206 207 205 177 160 172 179 181 183 186 189 197 205 210 212
12 7 9 7 3 2 2 358 351 353 0 0 3 359 356 3 2 358 351 1 345 2 59 173 247 233 259 232 189 245 236 137 186 168 180 192 196 194 197 209 215 219 221
12 17 9 7 6 16 12 3 355 355 358 1 9 5 3 10 4 349 354 3 355 341 309 206 212 188 245 242 181 228 240 221 237 179 176 182 186 195 207 214 216 221 228
15 18 12 14 10 31 17 4 351 350 358 1 4 14 22 25 14 346 346 343 334 314 311 307 185 144 253 159 224 266 235 284 282 237 178 186 171 186 206 223 223 225 225
16 6 18 22 23 25 14 6 356 341 345 357 359 2 10 25 16 349 326 305 300 298 287 278 270 206 222 209 257 240 184 298 289 251 172 245 181 188 204 202 208 211 215
21 10 20 35 38 26 12 358 349 332 337 353 356 349 357 13 12 354 327 286 269 273 243 236 240 253 219 205 192 224 223 276 267 256 209 236 226 213 219 213 196 201 207
20 13 31 33 35 28 9 354 342 333 338 354 4 8 10 16 11 356 332 351 6 356 315 253 246 251 229 191 216 234 235 259 263 260 214 224 244 232 244 210 203 203 210
352 359 53 40 37 21 2 352 344 327 347 354 7 15 18 27 8 357 351 355 1 3 1 11 320 251 230 223 208 175 244 251 286 278 215 207 249 261 254 241 221 211 216
318 327 44 45 40 18 350 348 345 334 347 341 341 40 42 27 8 1 355 353 355 358 359 356 348 261 225 222 216 203 217 229 285 289 243 237 263 276 279 249 234 223 227